• In Netherlands
  • List of Countries
  • For 7 days
  • Water Temperature
  • Satellite Maps
  • Weather Map
  • Weather Widgets
  • user-avatar
    Login

    Hourly Weather Primorsko

    Today, 20 October, Friday

    Time Temperature Precipitation Wind Pressure Humidity
    00:00 +18°C° 0 mm 1 mps 762 mmHg 68%
    01:00 +18°C° 0 mm 1 mps 762 mmHg 69%
    02:00 +18°C° 0 mm 1 mps 762 mmHg 69%
    03:00 +18°C° 0 mm 1 mps 762 mmHg 69%
    04:00 +16°C° 0 mm 1 mps 762 mmHg 69%
    05:00 +16°C° 0 mm 1 mps 762 mmHg 69%
    06:00 +18°C° 0 mm 1 mps 762 mmHg 66%
    07:00 +19°C° 0 mm 1 mps 762 mmHg 63%
    08:00 +20°C° 0 mm 1 mps 762 mmHg 58%
    09:00 +22°C° 0 mm 1 mps 762 mmHg 51%
    10:00 +24°C° 0 mm 1 mps 762 mmHg 44%
    11:00 +26°C° 0 mm 1 mps 762 mmHg 37%
    12:00 +27°C° 0 mm 1 mps 762 mmHg 35%
    13:00 +28°C° 0 mm 1 mps 762 mmHg 32%
    14:00 +28°C° 0 mm 1 mps 762 mmHg 30%
    15:00 +27°C° 0 mm 2 mps 762 mmHg 34%
    16:00 +25°C° 0 mm 2 mps 762 mmHg 38%
    17:00 +24°C° 0 mm 2 mps 762 mmHg 42%
    18:00 +23°C° 0 mm 2 mps 762 mmHg 44%
    19:00 +20°C° 0 mm 2 mps 762 mmHg 46%
    20:00 +19°C° 0 mm 2 mps 762 mmHg 47%
    21:00 +19°C° 0 mm 2 mps 762 mmHg 48%
    22:00 +19°C° 0 mm 2 mps 762 mmHg 48%
    23:00 +18°C° 0 mm 2 mps 762 mmHg 48%

    Tomorrow, 21 October, Saturday

    Time Temperature Precipitation Wind Pressure Humidity
    00:00 +18°C° 0 mm 2 mps 762 mmHg 49%
    01:00 +18°C° 0 mm 2 mps 762 mmHg 49%
    02:00 +17°C° 0 mm 2 mps 762 mmHg 50%
    03:00 +17°C° 0 mm 2 mps 762 mmHg 50%
    04:00 +17°C° 0 mm 2 mps 762 mmHg 50%
    05:00 +17°C° 0 mm 2 mps 762 mmHg 51%
    06:00 +17°C° 0 mm 2 mps 762 mmHg 50%
    07:00 +18°C° 0 mm 2 mps 762 mmHg 49%
    08:00 +19°C° 0 mm 2 mps 762 mmHg 48%
    09:00 +21°C° 0 mm 2 mps 762 mmHg 42%
    10:00 +24°C° 0 mm 1 mps 762 mmHg 36%
    11:00 +27°C° 0 mm 1 mps 762 mmHg 31%
    12:00 +27°C° 0 mm 1 mps 762 mmHg 29%
    13:00 +28°C° 0 mm 1 mps 761 mmHg 28%
    14:00 +28°C° 0 mm 1 mps 761 mmHg 26%
    15:00 +27°C° 0 mm 1 mps 761 mmHg 30%
    16:00 +25°C° 0 mm 1 mps 761 mmHg 34%
    17:00 +23°C° 0 mm 2 mps 760 mmHg 39%
    18:00 +21°C° 0 mm 2 mps 760 mmHg 40%
    19:00 +20°C° 0 mm 2 mps 761 mmHg 41%
    20:00 +19°C° 0 mm 2 mps 761 mmHg 42%
    21:00 +19°C° 0 mm 2 mps 761 mmHg 43%
    22:00 +19°C° 0 mm 2 mps 761 mmHg 43%
    23:00 +18°C° 0 mm 2 mps 760 mmHg 43%

    Day after tomorrow, 22 October, Sunday

    Time Temperature Precipitation Wind Pressure Humidity
    00:00 +18°C° 0 mm 2 mps 760 mmHg 43%
    01:00 +18°C° 0 mm 2 mps 760 mmHg 43%
    02:00 +18°C° 0 mm 2 mps 760 mmHg 43%
    03:00 +17°C° 0 mm 2 mps 760 mmHg 44%
    04:00 +17°C° 0 mm 2 mps 759 mmHg 45%
    05:00 +17°C° 0 mm 2 mps 759 mmHg 45%
    06:00 +17°C° 0 mm 2 mps 759 mmHg 46%
    07:00 +18°C° 0 mm 2 mps 760 mmHg 46%
    08:00 +19°C° 0 mm 2 mps 760 mmHg 47%
    09:00 +20°C° 0 mm 3 mps 760 mmHg 43%
    10:00 +22°C° 0 mm 3 mps 760 mmHg 39%
    11:00 +25°C° 0 mm 3 mps 760 mmHg 35%
    12:00 +25°C° 0 mm 3 mps 760 mmHg 35%
    13:00 +26°C° 0 mm 3 mps 760 mmHg 35%
    14:00 +26°C° 0 mm 3 mps 759 mmHg 35%
    15:00 +24°C° 0 mm 3 mps 759 mmHg 42%
    16:00 +22°C° 0 mm 4 mps 759 mmHg 49%
    17:00 +20°C° 0 mm 4 mps 759 mmHg 57%
    18:00 +19°C° 0 mm 3 mps 760 mmHg 64%
    19:00 +18°C° 0 mm 3 mps 760 mmHg 71%
    20:00 +16°C° 0 mm 3 mps 760 mmHg 78%
    21:00 +16°C° 0 mm 3 mps 760 mmHg 81%
    22:00 +16°C° 0 mm 3 mps 760 mmHg 83%
    23:00 +14°C° 0 mm 3 mps 760 mmHg 86%

    23 October, Monday

    Time Temperature Precipitation Wind Pressure Humidity
    00:00 +15°C° 0 mm 2 mps 760 mmHg 87%
    01:00 +15°C° 0 mm 2 mps 759 mmHg 89%
    02:00 +15°C° 0 mm 2 mps 759 mmHg 90%
    03:00 +15°C° 0 mm 2 mps 758 mmHg 90%
    04:00 +15°C° 0 mm 2 mps 758 mmHg 91%
    05:00 +14°C° 0 mm 2 mps 758 mmHg 91%
    06:00 +15°C° 0 mm 2 mps 757 mmHg 88%
    07:00 +16°C° 0 mm 3 mps 757 mmHg 85%
    08:00 +16°C° 0 mm 3 mps 757 mmHg 82%
    09:00 +18°C° 0 mm 3 mps 756 mmHg 74%
    10:00 +19°C° 0 mm 3 mps 756 mmHg 66%
    11:00 +21°C° 0 mm 4 mps 756 mmHg 58%
    12:00 +21°C° 0 mm 4 mps 755 mmHg 55%
    13:00 +22°C° 0 mm 4 mps 755 mmHg 52%
    14:00 +22°C° 0 mm 4 mps 754 mmHg 49%
    15:00 +21°C° 0.1 mm 3 mps 754 mmHg 55%
    16:00 +20°C° 0.1 mm 3 mps 754 mmHg 62%
    17:00 +19°C° 0.1 mm 3 mps 753 mmHg 68%
    18:00 +18°C° 0.3 mm 3 mps 753 mmHg 73%
    19:00 +18°C° 0.3 mm 3 mps 753 mmHg 78%
    20:00 +17°C° 0.3 mm 3 mps 753 mmHg 83%
    21:00 +17°C° 0.1 mm 3 mps 753 mmHg 85%
    22:00 +16°C° 0.1 mm 3 mps 753 mmHg 86%
    23:00 +16°C° 0.1 mm 3 mps 753 mmHg 88%

    24 October, Tuesday

    Time Temperature Precipitation Wind Pressure Humidity
    00:00 +16°C° 0 mm 3 mps 752 mmHg 87%
    01:00 +16°C° 0 mm 3 mps 752 mmHg 86%
    02:00 +16°C° 0 mm 3 mps 752 mmHg 84%
    03:00 +16°C° 0 mm 3 mps 752 mmHg 83%
    04:00 +16°C° 0 mm 3 mps 751 mmHg 81%
    05:00 +16°C° 0 mm 3 mps 751 mmHg 79%
    06:00 +16°C° 0.1 mm 3 mps 751 mmHg 79%
    07:00 +16°C° 0.1 mm 3 mps 752 mmHg 79%
    08:00 +17°C° 0.1 mm 3 mps 752 mmHg 79%
    09:00 +18°C° 0.3 mm 3 mps 752 mmHg 73%
    10:00 +19°C° 0.3 mm 3 mps 752 mmHg 67%
    11:00 +21°C° 0.3 mm 3 mps 753 mmHg 61%
    12:00 +21°C° 0.1 mm 4 mps 752 mmHg 56%
    13:00 +22°C° 0.1 mm 4 mps 752 mmHg 51%
    14:00 +23°C° 0.1 mm 4 mps 752 mmHg 46%
    15:00 +22°C° 0 mm 5 mps 753 mmHg 52%
    16:00 +21°C° 0 mm 5 mps 753 mmHg 58%
    17:00 +19°C° 0 mm 5 mps 753 mmHg 64%
    18:00 +19°C° 0.2 mm 5 mps 753 mmHg 69%
    19:00 +17°C° 0.2 mm 5 mps 754 mmHg 74%
    20:00 +17°C° 0.2 mm 5 mps 754 mmHg 79%
    21:00 +17°C° 0.1 mm 6 mps 754 mmHg 83%
    22:00 +17°C° 0.1 mm 7 mps 755 mmHg 87%
    23:00 +17°C° 0.1 mm 8 mps 755 mmHg 90%

    25 October, Wednesday

    Time Temperature Precipitation Wind Pressure Humidity
    00:00 +17°C° 0 mm 8 mps 755 mmHg 90%
    01:00 +17°C° 0 mm 9 mps 755 mmHg 89%
    02:00 +17°C° 0 mm 9 mps 755 mmHg 89%
    03:00 +17°C° 0.1 mm 10 mps 756 mmHg 89%
    04:00 +16°C° 0.1 mm 10 mps 756 mmHg 88%
    05:00 +16°C° 0.1 mm 10 mps 756 mmHg 88%
    06:00 +16°C° 0.2 mm 10 mps 757 mmHg 87%
    07:00 +16°C° 0.2 mm 10 mps 758 mmHg 87%
    08:00 +16°C° 0.2 mm 11 mps 758 mmHg 87%
    09:00 +16°C° 0.2 mm 11 mps 758 mmHg 87%
    10:00 +16°C° 0.2 mm 11 mps 759 mmHg 86%
    11:00 +16°C° 0.2 mm 11 mps 759 mmHg 86%
    12:00 +14°C° 0.2 mm 11 mps 759 mmHg 86%
    13:00 +14°C° 0.2 mm 11 mps 760 mmHg 86%
    14:00 +14°C° 0.2 mm 11 mps 760 mmHg 86%
    15:00 +13°C° 0.3 mm 11 mps 760 mmHg 86%
    16:00 +13°C° 0.3 mm 11 mps 761 mmHg 86%
    17:00 +13°C° 0.3 mm 11 mps 761 mmHg 86%
    18:00 +13°C° 1.2 mm 11 mps 762 mmHg 85%
    19:00 +12°C° 1.2 mm 11 mps 762 mmHg 85%
    20:00 +12°C° 1.2 mm 11 mps 763 mmHg 85%
    21:00 +12°C° 1.1 mm 11 mps 763 mmHg 84%
    22:00 +11°C° 1.1 mm 11 mps 764 mmHg 83%
    23:00 +11°C° 1.1 mm 11 mps 764 mmHg 83%
    Show more